Weather History for Skagway, AK

Change the Weather History Date:

Friday, October 26, 2012

  Actual Average Record
Temperature  
Mean Temperature 30 °F -  
Max Temperature 33 °F 42 °F 52 °F (2013)
Min Temperature 28 °F 33 °F 21 °F (1971)
Degree Days  
Heating Degree Days 34    
Moisture  
Dew Point 10 °F    
Average Humidity 42    
Maximum Humidity 47    
Minimum Humidity 38    
Precipitation  
Precipitation 0.00 in - - ()
Sea Level Pressure  
Sea Level Pressure 30.41 in    
Wind  
Wind Speed 12 mph (NNE)    
Max Wind Speed 23 mph    
Max Gust Speed 34 mph    
Visibility 10 miles    
Events      
Averages and records for this station are not official NWS values.
T = Trace of Precipitation, MM = Missing Value Source: NWS Daily Summary

Daily Weather History Graph

Daily Weather History Graph

Search for Another Location

Airport:

Trip Planner

Search our weather history database for the weather conditions in past years. The results will help you decide how hot, cold, wet, or windy it might be!

Date:

Astronomy

Oct. 26, 2012 Rise Set
Actual Time 8:07 AM AKDT 5:21 PM AKDT
Civil Twilight 7:24 AM AKDT 6:04 PM AKDT
Nautical Twilight 6:36 AM AKDT 6:52 PM AKDT
Astronomical Twilight 5:49 AM AKDT 7:39 PM AKDT
Moon 4:08 PM AKDT (10/26) 4:37 AM AKDT (10/26)
Length of Visible Light 10h 39m
Length of Day
9h 13m
Waxing Gibbous, 92% of the Moon is Illuminated
Oct 26
Waxing Gibbous
Oct 29
Full
Nov 6
Last Quarter
Nov 13
New
Nov 20
First Quarter

Hourly Weather History & Observations

Time (AKDT) Temp. Windchill Dew Point Humidity Pressure Visibility Wind Dir Wind Speed Gust Speed Precip Events Conditions
12:53 AM 30.0 °F 21.1 °F 9.0 °F 41% 30.51 in 10.0 mi NNE 10.4 mph - N/A   Clear
1:53 AM 30.0 °F 20.5 °F 9.0 °F 41% 30.50 in 10.0 mi NNE 11.5 mph - N/A   Clear
2:53 AM 30.0 °F 20.5 °F 8.1 °F 40% 30.49 in 10.0 mi NNE 11.5 mph - N/A   Clear
3:53 AM 30.0 °F 20.5 °F 8.1 °F 40% 30.48 in 10.0 mi NNE 11.5 mph - N/A   Clear
4:53 AM 30.0 °F 25.2 °F 9.0 °F 41% 30.47 in 10.0 mi Variable 4.6 mph - N/A   Clear
5:53 AM 30.0 °F 20.5 °F 9.0 °F 41% 30.47 in 10.0 mi NNE 11.5 mph 17.3 mph N/A   Clear
6:53 AM 28.9 °F 21.1 °F 10.0 °F 45% 30.47 in 10.0 mi NE 8.1 mph - N/A   Clear
7:53 AM 28.9 °F 21.1 °F 10.0 °F 45% 30.47 in 10.0 mi North 8.1 mph 18.4 mph N/A   Clear
8:53 AM 28.9 °F 19.8 °F 10.0 °F 45% 30.46 in 10.0 mi NNE 10.4 mph 16.1 mph N/A   Clear
9:53 AM 28.9 °F 21.9 °F 10.0 °F 45% 30.45 in 10.0 mi North 6.9 mph 19.6 mph N/A   Clear
10:53 AM 28.9 °F 19.8 °F 10.9 °F 47% 30.44 in 10.0 mi NNE 10.4 mph 18.4 mph N/A   Clear
11:53 AM 30.9 °F 19.8 °F 10.0 °F 42% 30.43 in 10.0 mi NNE 16.1 mph 23.0 mph N/A   Clear
12:53 PM 32.0 °F 20.8 °F 10.0 °F 40% 30.41 in 10.0 mi NNE 17.3 mph 25.3 mph N/A   Clear
1:53 PM 33.1 °F 20.6 °F 10.0 °F 38% 30.39 in 10.0 mi NE 23.0 mph 28.8 mph N/A   Clear
2:53 PM 33.1 °F 20.9 °F 10.0 °F 38% 30.37 in 10.0 mi NE 21.9 mph 27.6 mph N/A   Clear
3:53 PM 32.0 °F 22.5 °F 10.0 °F 40% 30.37 in 10.0 mi NNE 12.7 mph 25.3 mph N/A   Clear
4:53 PM 32.0 °F 19.5 °F 10.0 °F 40% 30.35 in 10.0 mi NNE 21.9 mph 27.6 mph N/A   Clear
5:53 PM 32.0 °F 21.6 °F 9.0 °F 38% 30.34 in 10.0 mi NNE 15.0 mph 34.5 mph N/A   Clear
6:53 PM 30.9 °F 22.2 °F 9.0 °F 40% 30.34 in 10.0 mi NNE 10.4 mph 21.9 mph N/A   Clear
7:53 PM 30.0 °F 25.2 °F 9.0 °F 41% 30.32 in 10.0 mi Variable 4.6 mph 24.2 mph N/A   Clear
8:53 PM 30.0 °F 20.0 °F 10.0 °F 43% 30.31 in 10.0 mi North 12.7 mph 33.4 mph N/A   Clear
9:53 PM 30.0 °F 20.0 °F 9.0 °F 41% 30.30 in 10.0 mi NNE 12.7 mph 19.6 mph N/A   Clear
10:53 PM 28.9 °F 16.9 °F 9.0 °F 43% 30.30 in 10.0 mi NE 17.3 mph 26.5 mph N/A   Clear
11:53 PM 28.0 °F 18.1 °F 10.0 °F 47% 30.29 in 10.0 mi NNE 11.5 mph 23.0 mph N/A   Clear